FW1662 Oyster Bay NY US current weather conditions

sailwx.info

Wind from 138

Air temperature 20.0° C
Dewpoint 18.7° C

Last reported at 2020-Jul-15 08:00 UTC.
Time now 2020-Jul-15 08:36 UTC

Location: N 40°48' W 073°30'.
View on Google Maps.

See reports from other nearby stations

  
Tides and Currents Weather Stations Pressure Air Temp Water Temp Dewpoint Dewpoint Depression Visibility Wind Speed Wind Dir Waves Ship Positions
date/time (UTC)wind fromknots sea level pressurealtimeterstation pressurevisibilityair tempwater tempwave heightnotes
2020-Jul-15 08:00 138 20.0
2020-Jul-15 07:45 113 20.0
2020-Jul-15 07:30 118 20.0
2020-Jul-15 07:16 148 20.0
2020-Jul-15 07:00 087 20.0
2020-Jul-15 06:45 120 20.0
2020-Jul-15 06:31 120 20.0
2020-Jul-15 06:15 120 20.0
2020-Jul-15 06:00 120 19.4
2020-Jul-15 05:45 120 19.4
2020-Jul-15 05:31 120 19.4
2020-Jul-15 05:15 120 20.0
2020-Jul-15 05:01 120 20.0
2020-Jul-15 04:45 120 20.6
2020-Jul-15 04:30 120 20.0
2020-Jul-15 04:15 094 20.6
2020-Jul-15 04:00 094 20.6
2020-Jul-15 03:45 094 21.1
2020-Jul-15 03:30 094 21.1
2020-Jul-15 03:15 094 21.7
2020-Jul-15 03:00 006 21.7
2020-Jul-15 02:45 296 21.7
2020-Jul-15 02:30 297 0 gusting 2 21.7
2020-Jul-15 02:15 290 21.7
2020-Jul-15 02:00 158 21.7
2020-Jul-15 01:45 212 21.7
2020-Jul-15 01:30 145 0 gusting 1 22.2
2020-Jul-15 01:15 289 22.8
2020-Jul-15 01:00 349 23.3
2020-Jul-15 00:45 011 23.3
2020-Jul-15 00:30 086 2 gusting 7 23.9
2020-Jul-15 00:15 335 3 gusting 12 25.0
2020-Jul-15 00:00 290 26.7
2020-Jul-14 23:47 290 27.2
2020-Jul-14 23:31 291 27.8
2020-Jul-14 23:16 289 0 gusting 3 28.3
2020-Jul-14 23:01 292 0 gusting 3 28.3
2020-Jul-14 22:46 310 0 gusting 3 28.9
2020-Jul-14 22:31 280 28.9
2020-Jul-14 22:16 300 28.3
2020-Jul-14 22:01 282 0 gusting 5 28.9
2020-Jul-14 21:49 266 0 gusting 3 28.9
2020-Jul-14 21:31 314 28.9
2020-Jul-14 21:17 303 29.4
2020-Jul-14 21:01 071 30.0
2020-Jul-14 20:46 293 0 gusting 5 30.0
2020-Jul-14 20:31 335 0 gusting 3 29.4
2020-Jul-14 20:16 271 0 gusting 4 29.4
2020-Jul-14 20:01 278 3 gusting 7 29.4
2020-Jul-14 19:45 205 0 gusting 4 29.4
2020-Jul-14 19:31 296 0 gusting 2 28.9
2020-Jul-14 19:16 306 1 gusting 5 28.9
2020-Jul-14 19:01 285 28.9
2020-Jul-14 18:46 326 0 gusting 6 28.3
2020-Jul-14 18:31 295 0 gusting 5 28.9
2020-Jul-14 18:16 297 1 gusting 5 28.9
2020-Jul-14 18:00 345 2 gusting 6 28.3
2020-Jul-14 17:45 309 1 gusting 6 28.3
2020-Jul-14 17:31 013 1 gusting 5 28.9
2020-Jul-14 14:00
2020-Jul-14 13:00 295 23.9
2020-Jul-14 11:01
2020-Jul-14 10:01
2020-Jul-14 09:02 209 19.4
2020-Jul-14 08:01 207 20.0
2020-Jul-14 07:46 20.0
2020-Jul-14 07:32 20.0
2020-Jul-14 07:16 20.0
2020-Jul-14 07:00 20.6
2020-Jul-14 06:45
2020-Jul-14 06:31
2020-Jul-14 06:16
2020-Jul-14 06:00
2020-Jul-14 05:46
2020-Jul-14 05:30
2020-Jul-14 05:15 291 22.8
2020-Jul-14 05:00 297 23.3
2020-Jul-14 04:45 297 23.9
2020-Jul-14 04:30 300 23.9
2020-Jul-14 04:15 278 24.4
2020-Jul-14 03:46 293 0 gusting 6 25.0
2020-Jul-14 03:31 302 1 gusting 5 24.4
2020-Jul-14 03:17 179 22.8
2020-Jul-14 03:01 155 22.8
2020-Jul-14 02:46 155 22.8
2020-Jul-14 02:31 155 22.8
2020-Jul-14 02:16 155 22.8
2020-Jul-14 02:02 155 23.3
2020-Jul-14 01:47 159 23.3
2020-Jul-14 01:31 159 23.3
2020-Jul-14 01:17 139 23.9
2020-Jul-14 01:00 138 23.9
2020-Jul-14 00:46 262 25.0
2020-Jul-14 00:31 297 26.1
2020-Jul-14 00:16 297 27.8
2020-Jul-14 00:01 294 28.3
2020-Jul-13 23:52 278 28.9
2020-Jul-13 23:31 314 0 gusting 6 28.9
2020-Jul-13 23:15 287 28.9
2020-Jul-13 22:46 300 0 gusting 5 28.9
2020-Jul-13 22:31 309 0 gusting 6 29.4
2020-Jul-13 22:15 302 2 gusting 6 29.4
2020-Jul-13 21:46 300 3 gusting 8 29.4
2020-Jul-13 21:31 316 0 gusting 5 30.0
2020-Jul-13 21:15 307 1 gusting 6 30.6
2020-Jul-13 21:00 288 3 gusting 7 30.6
2020-Jul-13 20:46 310 3 gusting 6 30.6
2020-Jul-13 20:31 260 0 gusting 5 30.6
2020-Jul-13 20:15 294 2 gusting 6 30.6
2020-Jul-13 20:01 272 0 gusting 7 30.6
2020-Jul-13 19:45 340 2 gusting 6 30.0
2020-Jul-13 19:31 300 0 gusting 8 30.6
2020-Jul-13 19:15 300 1 gusting 6 31.1
2020-Jul-13 19:01 287 2 gusting 7 30.6
2020-Jul-13 18:46 224 0 gusting 4 31.1
2020-Jul-13 18:30 295 2 gusting 5 30.6
2020-Jul-13 18:15 307 1 gusting 5 30.6
2020-Jul-13 18:00 141 0 gusting 3 30.6
2020-Jul-13 17:45 276 30.6
2020-Jul-13 17:30 334 0 gusting 4 30.0
2020-Jul-13 17:16 300 30.0
2020-Jul-13 17:00 290 2 gusting 6 29.4
2020-Jul-13 16:45 198 0 gusting 4 29.4
2020-Jul-13 16:31 272 0 gusting 3 28.9
2020-Jul-13 16:15 298 1 gusting 5 28.3
2020-Jul-13 16:00 298 1 gusting 6 29.4
2020-Jul-13 15:45 146 0 gusting 5 28.9
2020-Jul-13 15:31 296 28.3
2020-Jul-13 15:15 195 28.9
2020-Jul-13 15:00 303 0 gusting 4 28.9
2020-Jul-13 14:45 293 28.3
2020-Jul-13 14:31 279 0 gusting 4 27.8
2020-Jul-13 14:15 129 28.3
2020-Jul-13 14:00 250 27.8
2020-Jul-13 13:47 207 27.2
2020-Jul-13 13:32 262 0 gusting 5 26.1
2020-Jul-13 13:16 279 1 gusting 6 25.0
2020-Jul-13 13:02 293 1 gusting 5 25.6
2020-Jul-13 12:46 323 26.1
2020-Jul-13 12:31 252 26.1
2020-Jul-13 12:16 294 25.6
2020-Jul-13 12:00 144 25.0
2020-Jul-13 11:46 145 24.4
2020-Jul-13 11:30 138 23.3
2020-Jul-13 11:16 141 22.8
2020-Jul-13 11:01 141 22.2
2020-Jul-13 10:46 141 21.1
2020-Jul-13 10:30 141 20.6
2020-Jul-13 10:15 139 20.6
2020-Jul-13 10:01 139 20.6
2020-Jul-13 09:45 139 20.6
2020-Jul-13 09:31 139 20.6
2020-Jul-13 09:16 140 20.6
2020-Jul-13 09:00 139 21.1
2020-Jul-13 08:46 136 21.1
2020-Jul-13 08:31 136 21.1
2020-Jul-13 08:15 124 21.1
2020-Jul-13 08:02 124 21.1